Location: Moscow
(44.4414°N, 72.7154°W)
Time: 08:52:04
(UTC+00:00)

A-11 Canister half - Visible Passes

Search period start: 07 November 2024 00:00
Search period end: 17 November 2024 00:00
Orbit: 1525 x 1683 km, 47.3° (Epoch: 06 November)

Date Brightness Start Highest point End Pass type
(mag) Time Alt. Az. Time Alt. Az. Time Alt. Az.
07 Nov 10.9 05:57:03 16° ENE 05:57:03 16° ENE 05:58:29 10° ENE visible
07 Nov 9.0 07:55:21 73° NE 07:55:21 73° NE 08:03:53 10° E visible
07 Nov 9.0 09:53:39 25° WNW 09:59:33 66° SSW 10:08:43 10° SE visible
08 Nov 11.2 05:36:38 10° ENE 05:36:38 10° ENE 05:36:42 10° ENE visible
08 Nov 9.3 07:34:56 57° ENE 07:34:56 57° ENE 07:42:06 10° E visible
08 Nov 8.9 09:33:14 34° WNW 09:37:48 69° SSW 09:46:59 10° SE visible
09 Nov 9.8 07:14:34 43° E 07:14:34 43° E 07:20:18 10° E visible
09 Nov 8.9 09:12:52 46° W 09:16:03 71° SSW 09:25:16 10° SE visible
10 Nov 10.2 06:54:13 32° E 06:54:13 32° E 06:58:30 10° E visible
10 Nov 8.8 08:52:32 61° W 08:54:17 73° SSW 09:03:32 10° SE visible
10 Nov 9.9 10:50:50 11° WNW 10:58:08 28° SW 11:05:34 10° S visible
11 Nov 10.6 06:33:56 22° E 06:33:56 22° E 06:36:42 10° E visible
11 Nov 8.8 08:32:14 75° SW 08:32:31 76° SSW 08:41:48 10° SE visible
11 Nov 9.8 10:30:33 16° W 10:36:26 30° SW 10:44:04 10° S visible
12 Nov 11.0 06:13:41 15° E 06:13:41 15° E 06:14:55 10° E visible
12 Nov 9.0 08:12:00 68° SSE 08:12:00 68° SSE 08:20:03 10° ESE visible
12 Nov 9.7 10:10:19 22° W 10:14:44 31° SW 10:22:31 10° S visible
13 Nov 10.9 01:24:54 10° SSW 01:25:44 13° SSW 01:25:44 13° SSW visible
13 Nov 9.4 07:51:49 51° SE 07:51:49 51° SE 07:58:19 10° ESE visible
13 Nov 9.6 09:50:08 28° WSW 09:53:02 33° SW 10:00:59 10° SSE visible
14 Nov 10.6 01:03:15 10° SSW 01:05:45 19° S 01:05:45 19° S visible
14 Nov 9.9 07:31:40 37° ESE 07:31:40 37° ESE 07:36:34 10° ESE visible
14 Nov 9.5 09:30:00 33° WSW 09:31:20 35° SW 09:39:25 10° SSE visible
15 Nov 10.3 00:41:38 10° SSW 00:45:45 24° S 00:45:45 24° S visible
15 Nov 10.4 07:11:34 25° ESE 07:11:34 25° ESE 07:14:48 10° ESE visible
15 Nov 9.5 09:09:54 37° SW 09:09:54 37° SW 09:17:51 10° SSE visible
16 Nov 10.0 00:20:01 10° SSW 00:25:42 29° SSE 00:25:42 29° SSE visible
16 Nov 11.0 02:22:50 10° WSW 02:24:02 15° WSW 02:24:02 15° WSW visible
16 Nov 10.8 06:51:31 16° ESE 06:51:31 16° ESE 06:53:03 10° ESE visible
16 Nov 9.6 08:49:50 35° SSW 08:49:50 35° SSW 08:56:15 10° SSE visible
